星链-36638(STARLINK-36638)

导读

STARLINK-36638是美国太空探索技术公司SpaceX星链星座项目中的卫星,于2026年1月29日由美国发射升空。星链项目旨在构建全球卫星互联网,该卫星入轨后将和其他星链卫星协同,为全球偏远地区、海洋空域等提供低延迟、高速率的宽带互联网接入服务。

Basic Information
目录编号:
67594
目录名称:
STARLINK-36638
国际标识:
2026-018F
轨道中心:
EARTH
卫星名称:
星链-36638
卫星全名:
星链-36638(STARLINK-36638)
卫星状态:
在轨 (已飞行219 天)
发射日期:
2026-01-29 UTC
国别 :
美国 (US)
星等 :
--
Orbit Information
数据来源 国际轨道数据
星历时间: 2026-09-05T11:42:21+0800
11小时前
查看轨道信息
半长轴: 6843.678km
偏心率: 0.0001596
轨道倾角: 97.288°
近地点辐角 102.547°
升交点赤经 311.754°
平近点角 257.595°
近地点: 464.448km
远地点: 466.634km
周期: 93.906分钟
每日圈数: 15.334459
Detailed Information
固有亮度:
5
最大亮度:
2.5
卫星平台:
Starlink V1.0
覆盖范围:
全球
运营商:
太空探索技术公司
运营商所在国:
美国
制造商(研发单位):
太空探索技术公司
制造商所在国:
美国
使用方式:
暂无
Satellite Introduction
Starlink 计划是 SpaceX 推出的全球卫星互联网项目,通过发射低轨道卫星,为全球尤其是偏远地区提供高速、低延迟的互联网服务。自 2019 年起,Starlink 已部署数千颗卫星,旨在缩小全球数字鸿沟,推动互联网普及。该项目还为军事、航空等行业提供通信支持,带来广泛经济效益。
2D Orbit Map
3D Orbit Map
Orbit Altitude Analysis Chart
Orbit Inclination Analysis Chart
Orbit Comprehensive Analysis Chart
View Comprehensive Chart
Conjunction Data List
Event ID Objects TCA Miss Dist (km) Collision Risk Probability Collision Risk Index (CRI) Action
CDM_260906-043806-295706-759422
2026-09-06T
04:38:20+0000
2.858 km
极远距离
1.410578E-6 低风险 0.38
CDM_260906-045605-196206-759421
2026-09-06T
04:56:46+0000
2.346 km
极远距离
1.373E-6 低风险 0.38
CDM_260906-164106-237306-759422
2026-09-06T
16:41:52+0000
2.400 km
极远距离
1.343385E-6 低风险 0.38
CDM_260908-002406-371006-759421
2026-09-08T
00:24:43+0000
2.931 km
极远距离
1.327796E-6 低风险 0.37
CDM_260905-151304-845206-759421
2026-09-05T
15:13:04+0000
2.869 km
极远距离
1.281958E-6 低风险 0.37
CDM_260906-090305-720306-759421
2026-09-06T
09:03:23+0000
2.625 km
极远距离
3.589881E-7 极低风险 0.26